Location: Newark
(14.1000°N, 87.2167°W)
Time: 09:25:29
(UTC+00:00)

Hubble Space Telescope - Pass Details

Date: 28 July 2019
Orbit: 536 x 540 km, 28.5° (Epoch: 19 August)

Event Time Altitude Azimuth Distance (km) Brightness Sun altitude
Exits shadow 10:06:43 14° 318° (NW) 1,542 2.9 -19.9°
Maximum altitude 10:08:19 17° 346° (NNW) 1,396 3.0 -19.5°
Drops below altitude 10° 10:11:02 10° 27° (NNE) 1,779 4.2 -18.9°
Sets 10:13:57 0° 48° (NE) 2,668 5.8 -18.3°
